Regional Weather Roundup
Issued by NWS Cleveland, OH

Home | Current Version | Previous Version | Text Only | Print | Product List | Glossary Off
Versions: 1 2 3 4 5 6 7 8 9 10 11 12 13 14 15 16 17 18 19 20 21 22 23 24 25 26 27 28 29 30 31 32 33 34 35 36 37 38 39 40 41 42 43 44 45 46 47 48 49 50

423
ASUS41 KCLE 131000
RWRCLE
OHIO REGIONAL WEATHER ROUNDUP
NATIONAL WEATHER SERVICE WILMINGTON, OH
500 AM EST WED DEC 13 2017

NOTE: "FAIR" INDICATES FEW OR NO CLOUDS BELOW 12,000 FEET WITH NO
SIGNIFICANT WEATHER AND/OR OBSTRUCTIONS TO VISIBILITY.

OHZ001>008-015>018-024>027-034-035-043-044-131100-
   NORTHWEST OHIO

CITY           SKY/WX    TMP DP  RH WIND       PRES   REMARKS
DEFIANCE       FAIR      13   8  81 S6        29.88F WCI   4
FINDLAY        MOCLDY    18  10  71 W9        29.88S WCI   7
TOLEDO EXPRESS CLOUDY    18  12  77 SW7       29.87F WCI   9
TOLEDO EXEC    CLOUDY    19  10  68 W10       29.88F WCI   7
LIMA           FAIR      12   8  84 SW7       29.88F WCI   1
$$

OHZ009>014-019>023-028>033-038-089-131100-
   NORTHEAST OHIO

CITY           SKY/WX    TMP DP  RH WIND       PRES   REMARKS
CLE-HOPKINS    CLOUDY    20   7  57 W17       29.86R WCI   5
CLE-LAKEFRONT  FLURRIES  21   9  59 W22G37    29.84R WCI   5
CUY CO. ARPT   NOT AVBL
LORAIN-ELYRIA  CLOUDY    17   3  54 W9        29.86R WCI   6
ASHTABULA      CLOUDY    17   8  67 NW13G22   29.79R WCI   4
AKRON-CANTON   CLOUDY    14   2  58 W9        29.83R WCI   2
WOOSTER        NOT AVBL
MANSFIELD      CLOUDY    16   7  67 SW6       29.84S WCI   7
YOUNGSTOWN     LGT SNOW  15  11  83 SW10      29.78R FOG     WCI   2
$$

OHZ042-051>053-060>062-070>072-077>081-131100-
  SOUTHWEST OHIO

CITY           SKY/WX    TMP DP  RH WIND       PRES   REMARKS
CINC-COVINGTON FAIR      17   8  67 SW6       29.94F WCI   9
CINC-LUNKEN    FAIR      16   9  74 S7        29.98F WCI   6
HAMILTON       FAIR      13   9  84 CALM      29.96F
DAYTON         NOT AVBL
WRIGHT-PAT AFB CLOUDY    17  10  73 SW7       29.92F WCI   7
DAYTON GENERAL CLOUDY    16   9  74 SW5       29.92F WCI   9
WILMINGTON     FAIR      13   9  84 SW3       29.91F
$$

OHZ036-037-039>041-045>050-054>059-063>069-073>076-082>088-131100-
  CENTRAL AND SOUTHEAST OHIO

CITY           SKY/WX    TMP DP  RH WIND       PRES   REMARKS
COLUMBUS       CLOUDY    19  10  68 W10       29.91S WCI   7
OSU AIRPORT    MOCLDY    16   9  74 W8        29.90S WCI   5
BOLTON FIELD   NOT AVBL
RICKENBACK AFB NOT AVBL
NEWARK         CLOUDY    20  13  74 MISG      29.89S
MARION         NOT AVBL
LANCASTER      CLOUDY    18  10  71 W10       29.91S WCI   6
ZANESVILLE     FLURRIES  19  12  74 SW5       29.90R WCI  12
NEW PHILLY     CLOUDY    18   5  57 W8        29.89R WCI   8
$$




USA.gov is the U.S. government's official web portal to all federal, state and local government web resources and services.